weather.gov     
National Weather Service

Regional Weather Roundup
NWS Homepage
This page is being discontinued on March 12, 2014.
The same data is available at this site. Please update your bookmarks.
Thank you, and we apologize for the inconvenience.
Please send an email to SR-SRH.Webmaster@noaa.gov with any concerns.


Current Version
Previous Version:    01  02  03  04  05  06  07  08  09  10  11  12  13  14  15  16  17  18  19  20  21  22  23  24  25  26  
[Printable]
923
ASUS44 KLZK 220105
RWRLZK

WEATHER ROUNDUP FOR ARKANSAS
NATIONAL WEATHER SERVICE LITTLE ROCK AR
800 PM CDT TUE OCT 21 2014

NOTE: "FAIR" INDICATES FEW OR NO CLOUDS BELOW 12,000 FEET WITH NO
SIGNIFICANT WEATHER AND/OR OBSTRUCTIONS TO VISIBILITY.

ARZ001-003-010-029-220200-
NORTHWEST ARKANSAS

CITY           SKY/WX    TMP DP  RH WIND       PRES   REMARKS
FAYETTEVILLE   CLEAR     56  54  93 CALM      30.09R
FORT SMITH     CLEAR     67  60  78 CALM      30.05R
HARRISON       CLEAR     59  48  67 CALM      30.10R
BENTONVILLE    CLEAR     61  52  72 CALM      30.09R
ROGERS         CLEAR     61  52  72 E3        30.10R
SILOAM SPGS    CLEAR     64  52  63 CALM      30.09R
HIGHFILL       CLEAR     62  54  74 CALM      30.08R
SPRINGDALE     CLEAR     61  54  77 NW5       30.10R
$$

ARZ004-005-016-220200-
NORTH CENTRAL ARKANSAS

CITY           SKY/WX    TMP DP  RH WIND       PRES   REMARKS
BATESVILLE     CLEAR     61  46  59 CALM      30.09R
FLIPPIN        CLEAR     57  46  67 CALM      30.10R
MTN HOME       CLEAR     59  49  69 CALM      30.09R
$$

ARZ040-041-220200-
WEST CENTRAL ARKANSAS

CITY           SKY/WX    TMP DP  RH WIND       PRES   REMARKS
MENA           CLEAR     63  63 100 CALM      30.08R
MOUNT IDA      CLEAR     62  59  90 CALM      30.05R
$$

ARZ009-017-025-026-028-220200-
NORTHEAST ARKANSAS

CITY           SKY/WX    TMP DP  RH WIND       PRES   REMARKS
CORNING        FAIR      63  50  63 E8        30.10R
JONESBORO      CLEAR     59  52  77 CALM      30.08R
NEWPORT        CLEAR     61  53  74 E5        30.09R HAZE
WALNUT RIDGE   CLEAR     64  46  52 CALM      30.08R
BLYTHEVILLE    CLEAR     57  50  77 N3        30.09R
$$

ARZ022-023-033-042-044-220200-
CENTRAL ARKANSAS

CITY           SKY/WX    TMP DP  RH WIND       PRES   REMARKS
LITTLE ROCK    CLEAR     63  52  67 CALM      30.07R
N LITTLE ROCK  CLEAR     64  55  73 NW3       30.07R
JACKSONVILLE   CLEAR     59  54  84 CALM      30.07R
SEARCY         CLEAR     59  52  77 N3        30.09R
HOT SPRINGS    CLEAR     63  55  75 E5        30.07R
RUSSELLVILLE   CLEAR     60  56  86 CALM      30.06R
$$

ARZ036-220200-
EAST ARKANSAS

CITY           SKY/WX    TMP DP  RH WIND       PRES   REMARKS
WEST MEMPHIS   CLEAR     58  50  75 NW3       30.07R
$$

ARZ050-053-066-070-073-220200-
SOUTHWEST ARKANSAS

CITY           SKY/WX    TMP DP  RH WIND       PRES   REMARKS
ARKADELPHIA    FAIR      64  63  97 CALM      30.06R
CAMDEN         CLEAR     63  59  88 MISG      30.05R FOG
TEXARKANA      CLEAR     69  61  75 E3        30.05R
EL DORADO      CLEAR     63  61  93 CALM      30.05R
DE QUEEN       PTCLDY    66  65  96 E3        30.03R FOG
$$

ARZ056-057-069-220200-
SOUTHEAST ARKANSAS

CITY           SKY/WX    TMP DP  RH WIND       PRES   REMARKS
PINE BLUFF     CLEAR     63  55  75 N3        30.06R
STUTTGART      CLEAR     63  52  67 E6        30.08R
MONTICELLO     CLEAR     63  59  87 CALM      30.05R

$$






U.S. Dept. of Commerce
NOAA National Weather Service
1325 East West Highway
Silver Spring, MD 20910
E-mail: w-nws.webmaster@noaa.gov
Page last modified: May 16, 2007
NATIONAL WEATHER SERVICE: for Safety, for Work, for Fun - FOR LIFE